YZR7920 ZWWW-ZSNJ

Flight info

Callsign YZR7920
Flight time 4h 0m
Altitude 33100
Route VARMI W190 ADPET W188 LIKMI W270 DKO W64 NUTLO B208 CGO W129 KAMDA W128 FYG B208 HFE
Aircraft B77L/H-SDE2E3FGILRWXY/LB2

Departure

Time 2026-04-29 00:55
Airport Ürümqi Tianshan International Airport (ZWWW)

Arrival

Time 2026-04-29 04:55
Airport Nanjing Lukou International Airport (ZSNJ)
Time Latitude Longitude Altitude Speed Heading
2026-04-28 23:57 43.91380 87.49255 2143 ft 0 kts 162°
2026-04-29 00:33 43.91388 87.49252 2143 ft 2 kts 162°
2026-04-29 00:33 43.91403 87.49246 2143 ft 2 kts 162°
2026-04-29 00:33 43.91417 87.49239 2144 ft 2 kts 164°
2026-04-29 00:33 43.91432 87.49238 2144 ft 2 kts 191°
2026-04-29 00:34 43.91445 87.49245 2144 ft 2 kts 213°
2026-04-29 00:34 43.91457 87.49258 2143 ft 2 kts 234°
2026-04-29 00:34 43.91463 87.49273 2143 ft 0 kts 252°
2026-04-29 00:34 43.91464 87.49279 2143 ft 0 kts 253°
2026-04-29 00:38 43.91463 87.49275 2143 ft 0 kts 253°
2026-04-29 00:38 43.91461 87.49264 2143 ft 1 kts 253°
2026-04-29 00:38 43.91457 87.49244 2143 ft 2 kts 253°
2026-04-29 00:39 43.91451 87.49216 2143 ft 3 kts 253°
2026-04-29 00:39 43.91443 87.49178 2143 ft 4 kts 253°
2026-04-29 00:39 43.91434 87.49131 2143 ft 5 kts 255°
2026-04-29 00:39 43.91446 87.49089 2143 ft 5 kts 324°
2026-04-29 00:40 43.91485 87.49068 2143 ft 6 kts 342°
2026-04-29 00:40 43.91531 87.49048 2143 ft 7 kts 343°
2026-04-29 00:40 43.91583 87.49026 2142 ft 8 kts 342°
2026-04-29 00:40 43.91639 87.49002 2142 ft 8 kts 342°
2026-04-29 00:41 43.91699 87.48978 2142 ft 9 kts 343°
2026-04-29 00:41 43.91763 87.48952 2142 ft 9 kts 343°
2026-04-29 00:41 43.91830 87.48925 2142 ft 10 kts 343°
2026-04-29 00:41 43.91899 87.48896 2142 ft 10 kts 343°
2026-04-29 00:42 43.91972 87.48867 2142 ft 11 kts 343°
2026-04-29 00:42 43.92047 87.48836 2142 ft 11 kts 343°
2026-04-29 00:42 43.92123 87.48804 2142 ft 11 kts 342°
2026-04-29 00:42 43.92201 87.48772 2142 ft 11 kts 342°
2026-04-29 00:43 43.92280 87.48738 2142 ft 12 kts 342°
2026-04-29 00:43 43.92361 87.48704 2142 ft 12 kts 343°
2026-04-29 00:43 43.92444 87.48671 2142 ft 12 kts 343°
2026-04-29 00:43 43.92491 87.48637 2142 ft 7 kts 301°
2026-04-29 00:44 43.92494 87.48564 2142 ft 8 kts 256°
2026-04-29 00:44 43.92478 87.48486 2142 ft 8 kts 253°
2026-04-29 00:44 43.92460 87.48402 2142 ft 9 kts 253°
2026-04-29 00:44 43.92442 87.48315 2142 ft 9 kts 253°
2026-04-29 00:45 43.92422 87.48225 2142 ft 9 kts 253°
2026-04-29 00:45 43.92403 87.48132 2142 ft 10 kts 253°
2026-04-29 00:45 43.92382 87.48035 2142 ft 10 kts 253°
2026-04-29 00:45 43.92361 87.47938 2142 ft 10 kts 253°
2026-04-29 00:46 43.92340 87.47839 2142 ft 10 kts 253°
2026-04-29 00:46 43.92318 87.47737 2142 ft 11 kts 253°
2026-04-29 00:46 43.92297 87.47633 2142 ft 11 kts 253°
2026-04-29 00:46 43.92275 87.47528 2142 ft 11 kts 253°
2026-04-29 00:47 43.92252 87.47423 2142 ft 11 kts 253°
2026-04-29 00:47 43.92229 87.47316 2142 ft 11 kts 253°
2026-04-29 00:47 43.92206 87.47208 2142 ft 11 kts 253°
2026-04-29 00:47 43.92182 87.47098 2142 ft 11 kts 253°
2026-04-29 00:48 43.92160 87.46989 2142 ft 11 kts 253°
2026-04-29 00:48 43.92136 87.46880 2142 ft 11 kts 253°
2026-04-29 00:48 43.92113 87.46769 2142 ft 11 kts 253°
2026-04-29 00:48 43.92089 87.46658 2142 ft 12 kts 253°
2026-04-29 00:49 43.92065 87.46548 2142 ft 12 kts 253°
2026-04-29 00:49 43.92041 87.46435 2142 ft 12 kts 253°
2026-04-29 00:49 43.92018 87.46323 2142 ft 12 kts 253°
2026-04-29 00:49 43.91994 87.46210 2142 ft 12 kts 253°
2026-04-29 00:50 43.91970 87.46099 2142 ft 12 kts 253°
2026-04-29 00:50 43.91946 87.45987 2142 ft 12 kts 253°
2026-04-29 00:50 43.91922 87.45873 2142 ft 12 kts 253°
2026-04-29 00:50 43.91898 87.45759 2142 ft 12 kts 253°
2026-04-29 00:51 43.91874 87.45644 2142 ft 12 kts 253°
2026-04-29 00:51 43.91849 87.45530 2142 ft 12 kts 253°
2026-04-29 00:51 43.91825 87.45416 2142 ft 12 kts 253°
2026-04-29 00:51 43.91801 87.45306 2142 ft 8 kts 253°
2026-04-29 00:52 43.91788 87.45242 2142 ft 7 kts 253°
2026-04-29 00:52 43.91795 87.45178 2142 ft 7 kts 310°
2026-04-29 00:52 43.91843 87.45143 2142 ft 8 kts 342°
2026-04-29 00:52 43.91896 87.45122 2142 ft 6 kts 344°
2026-04-29 00:53 43.91938 87.45143 2142 ft 7 kts 46°
2026-04-29 00:53 43.91959 87.45203 2142 ft 5 kts 73°
2026-04-29 00:53 43.91960 87.45207 2142 ft 0 kts 73°
2026-04-29 00:53 43.91974 87.45272 2142 ft 27 kts 74°
2026-04-29 00:54 43.92097 87.45856 2142 ft 98 kts 73°
2026-04-29 00:54 43.92354 87.47058 2142 ft 160 kts 73°
2026-04-29 00:54 43.92722 87.48792 2181 ft 210 kts 75°
2026-04-29 00:54 43.93210 87.50809 2595 ft 232 kts 68°
2026-04-29 00:55 43.93804 87.52850 3649 ft 226 kts 72°
2026-04-29 00:55 43.94282 87.54844 4412 ft 221 kts 72°
2026-04-29 00:55 43.94774 87.56937 4715 ft 237 kts 72°
2026-04-29 00:55 43.95317 87.59156 5120 ft 249 kts 66°
2026-04-29 00:56 43.96312 87.61101 5740 ft 250 kts 37°
2026-04-29 00:56 43.97815 87.62186 6375 ft 248 kts 10°
2026-04-29 00:56 43.99533 87.62219 6959 ft 250 kts 347°
2026-04-29 00:56 44.01226 87.61648 7564 ft 253 kts 344°
2026-04-29 00:57 44.02932 87.61021 8236 ft 254 kts 344°
2026-04-29 00:57 44.04633 87.60394 8878 ft 256 kts 343°
2026-04-29 00:57 44.06363 87.59756 9506 ft 257 kts 343°
2026-04-29 00:57 44.08075 87.59123 10142 ft 257 kts 343°
2026-04-29 00:58 44.09815 87.58480 10725 ft 260 kts 343°
2026-04-29 00:58 44.11591 87.58086 11241 ft 265 kts
2026-04-29 00:58 44.13451 87.58622 11605 ft 280 kts 15°
2026-04-29 00:58 44.15327 87.59524 11875 ft 297 kts 17°
2026-04-29 00:59 44.17332 87.60529 12171 ft 313 kts 17°
2026-04-29 00:59 44.19444 87.61577 12506 ft 329 kts 17°
2026-04-29 00:59 44.21648 87.62664 12856 ft 344 kts 17°
2026-04-29 00:59 44.23927 87.63786 13226 ft 358 kts 17°
2026-04-29 01:00 44.26338 87.64973 13639 ft 372 kts 17°
2026-04-29 01:00 44.28804 87.66190 14076 ft 386 kts 17°
2026-04-29 01:00 44.31365 87.67500 14667 ft 395 kts 21°
2026-04-29 01:00 44.33790 87.69315 15389 ft 403 kts 31°
2026-04-29 01:01 44.36015 87.71746 16123 ft 411 kts 39°
2026-04-29 01:01 44.38134 87.74416 16860 ft 415 kts 40°
2026-04-29 01:01 44.40280 87.77146 17558 ft 421 kts 39°
2026-04-29 01:01 44.42454 87.79913 18249 ft 426 kts 39°
2026-04-29 01:02 44.44648 87.82706 18868 ft 432 kts 40°
2026-04-29 01:02 44.46883 87.85553 19455 ft 439 kts 40°
2026-04-29 01:02 44.49138 87.88427 20050 ft 446 kts 40°
2026-04-29 01:02 44.51391 87.91449 20655 ft 453 kts 45°
2026-04-29 01:03 44.53335 87.94947 21195 ft 463 kts 55°
2026-04-29 01:03 44.54882 87.98932 21711 ft 472 kts 65°
2026-04-29 01:03 44.55969 88.03304 22293 ft 479 kts 75°
2026-04-29 01:03 44.56542 88.07923 22837 ft 485 kts 85°
2026-04-29 01:04 44.56563 88.12659 23382 ft 489 kts 95°
2026-04-29 01:04 44.56127 88.17369 23992 ft 492 kts 99°
2026-04-29 01:04 44.55615 88.22090 24624 ft 495 kts 99°
2026-04-29 01:04 44.55120 88.26901 25137 ft 499 kts 99°
2026-04-29 01:05 44.54646 88.31695 25700 ft 502 kts 99°
2026-04-29 01:05 44.54175 88.36564 26277 ft 505 kts 98°
2026-04-29 01:05 44.53713 88.41404 26781 ft 510 kts 98°
2026-04-29 01:05 44.53242 88.46388 27272 ft 515 kts 98°
2026-04-29 01:06 44.52776 88.51345 27760 ft 519 kts 98°
2026-04-29 01:06 44.52323 88.56348 28292 ft 523 kts 98°
2026-04-29 01:06 44.51871 88.61446 28812 ft 527 kts 98°
2026-04-29 01:06 44.51420 88.66524 29291 ft 532 kts 99°
2026-04-29 01:07 44.50961 88.71683 29864 ft 534 kts 99°
2026-04-29 01:07 44.50504 88.76791 30508 ft 533 kts 99°
2026-04-29 01:07 44.50048 88.81881 31189 ft 531 kts 99°
2026-04-29 01:07 44.49583 88.87041 31819 ft 530 kts 99°
2026-04-29 01:08 44.49118 88.92175 32347 ft 530 kts 98°
2026-04-29 01:08 44.48652 88.97298 32826 ft 531 kts 98°
2026-04-29 01:08 44.48179 89.02464 33169 ft 534 kts 98°
2026-04-29 01:09 44.47226 89.12756 33189 ft 529 kts 98°
2026-04-29 01:09 44.46250 89.23048 33181 ft 530 kts 99°
2026-04-29 01:10 44.45269 89.33306 33182 ft 529 kts 99°
2026-04-29 01:10 44.44279 89.43560 33181 ft 530 kts 99°
2026-04-29 01:11 44.43277 89.53841 33182 ft 530 kts 99°
2026-04-29 01:11 44.42268 89.64108 33188 ft 530 kts 99°
2026-04-29 01:12 44.40708 89.74159 33182 ft 527 kts 109°
2026-04-29 01:12 44.38602 89.83931 33183 ft 527 kts 109°
2026-04-29 01:13 44.36481 89.93690 33182 ft 527 kts 109°
2026-04-29 01:13 44.34344 90.03480 33184 ft 525 kts 109°
2026-04-29 01:14 44.32204 90.13237 33182 ft 526 kts 109°
2026-04-29 01:14 44.30055 90.22998 33183 ft 527 kts 110°
2026-04-29 01:15 44.27910 90.32692 33193 ft 527 kts 109°
2026-04-29 01:15 44.25746 90.42429 33189 ft 526 kts 109°
2026-04-29 01:16 44.23579 90.52135 33195 ft 525 kts 109°
2026-04-29 01:16 44.21415 90.61786 33191 ft 525 kts 109°
2026-04-29 01:17 44.19235 90.71462 33191 ft 526 kts 110°
2026-04-29 01:17 44.17041 90.81156 33191 ft 524 kts 110°
2026-04-29 01:18 44.14843 90.90830 33188 ft 524 kts 110°
2026-04-29 01:18 44.11524 91.05351 33197 ft 526 kts 110°
2026-04-29 01:19 44.09302 91.15031 33203 ft 524 kts 110°
2026-04-29 01:19 44.07094 91.24606 33203 ft 526 kts 110°
2026-04-29 01:20 44.04863 91.34242 33202 ft 523 kts 110°
2026-04-29 01:20 44.02622 91.43868 33210 ft 523 kts 110°
2026-04-29 01:21 44.00371 91.53411 33205 ft 524 kts 110°
2026-04-29 01:21 43.98096 91.63003 33207 ft 523 kts 110°
2026-04-29 01:22 43.95816 91.72581 33195 ft 522 kts 111°
2026-04-29 01:22 43.93530 91.82148 33197 ft 523 kts 111°
2026-04-29 01:23 43.91254 91.91627 33191 ft 522 kts 111°
2026-04-29 01:23 43.88967 92.01115 33192 ft 521 kts 111°
2026-04-29 01:24 43.86661 92.10644 33193 ft 522 kts 111°
2026-04-29 01:24 43.84345 92.20173 33192 ft 521 kts 111°
2026-04-29 01:25 43.82032 92.29648 33192 ft 522 kts 111°
2026-04-29 01:25 43.79705 92.39143 33188 ft 521 kts 111°
2026-04-29 01:26 43.77373 92.48621 33187 ft 521 kts 111°
2026-04-29 01:26 43.75038 92.58070 33194 ft 520 kts 111°
2026-04-29 01:27 43.72683 92.67561 33192 ft 520 kts 111°
2026-04-29 01:27 43.70324 92.77031 33188 ft 518 kts 111°
2026-04-29 01:28 43.67977 92.86408 33193 ft 521 kts 111°
2026-04-29 01:28 43.65607 92.95843 33182 ft 520 kts 111°
2026-04-29 01:29 43.63286 93.05311 33188 ft 522 kts 110°
2026-04-29 01:29 43.61024 93.14814 33182 ft 522 kts 110°
2026-04-29 01:30 43.58740 93.24358 33191 ft 522 kts 110°
2026-04-29 01:30 43.56465 93.33809 33191 ft 523 kts 110°
2026-04-29 01:31 43.54160 93.43339 33192 ft 522 kts 110°
2026-04-29 01:31 43.51873 93.52747 33183 ft 521 kts 110°
2026-04-29 01:32 43.49545 93.62285 33186 ft 523 kts 110°
2026-04-29 01:32 43.47224 93.71750 33190 ft 522 kts 110°
2026-04-29 01:33 43.44898 93.81200 33194 ft 522 kts 110°
2026-04-29 01:33 43.42571 93.90614 33207 ft 520 kts 110°
2026-04-29 01:34 43.40231 94.00044 33209 ft 522 kts 110°
2026-04-29 01:34 43.37884 94.09460 33213 ft 521 kts 110°
2026-04-29 01:35 43.35511 94.18943 33220 ft 523 kts 110°
2026-04-29 01:35 43.33118 94.28464 33220 ft 521 kts 110°
2026-04-29 01:36 43.30738 94.37898 33221 ft 522 kts 110°
2026-04-29 01:36 43.28334 94.47388 33210 ft 522 kts 110°
2026-04-29 01:37 43.25935 94.56821 33209 ft 521 kts 110°
2026-04-29 01:37 43.23536 94.66215 33200 ft 521 kts 110°
2026-04-29 01:38 43.21141 94.75556 33205 ft 521 kts 110°
2026-04-29 01:38 43.18729 94.84928 33222 ft 521 kts 110°
2026-04-29 01:39 43.16319 94.94253 33213 ft 522 kts 110°
2026-04-29 01:39 43.13519 95.03355 33221 ft 520 kts 122°
2026-04-29 01:40 43.09054 95.11060 33216 ft 514 kts 139°
2026-04-29 01:40 43.03402 95.16966 33212 ft 512 kts 147°
2026-04-29 01:41 42.97549 95.22530 33219 ft 511 kts 148°
2026-04-29 01:41 42.91718 95.28007 33215 ft 510 kts 148°
2026-04-29 01:42 42.85871 95.33459 33203 ft 511 kts 148°
2026-04-29 01:42 42.80006 95.38900 33196 ft 511 kts 148°
2026-04-29 01:43 42.74115 95.44344 33195 ft 510 kts 148°
2026-04-29 01:43 42.68224 95.49770 33192 ft 514 kts 148°
2026-04-29 01:44 42.62315 95.55199 33189 ft 511 kts 148°
2026-04-29 01:44 42.56428 95.60593 33188 ft 513 kts 148°
2026-04-29 01:45 42.50515 95.65999 33184 ft 511 kts 148°
2026-04-29 01:45 42.44956 95.71954 33187 ft 515 kts 135°
2026-04-29 01:46 42.40818 95.79791 33186 ft 517 kts 117°
2026-04-29 01:46 42.38485 95.88957 33208 ft 517 kts 99°
2026-04-29 01:47 42.37983 95.98564 33214 ft 514 kts 89°
2026-04-29 01:47 42.37835 96.08212 33225 ft 515 kts 90°
2026-04-29 01:48 42.37626 96.17860 33223 ft 515 kts 90°
2026-04-29 01:48 42.37377 96.27501 33231 ft 513 kts 90°
2026-04-29 01:49 42.37103 96.37185 33219 ft 514 kts 90°
2026-04-29 01:49 42.36811 96.46871 33225 ft 513 kts 90°
2026-04-29 01:50 42.36507 96.56557 33216 ft 514 kts 90°
2026-04-29 01:50 42.36191 96.66220 33214 ft 512 kts 91°
2026-04-29 01:51 42.35871 96.75756 33206 ft 512 kts 91°
2026-04-29 01:51 42.35540 96.85355 33208 ft 511 kts 91°
2026-04-29 01:52 42.35201 96.94933 33208 ft 511 kts 91°
2026-04-29 01:52 42.34853 97.04546 33207 ft 512 kts 91°
2026-04-29 01:53 42.34496 97.14150 33204 ft 511 kts 91°
2026-04-29 01:53 42.34133 97.23709 33207 ft 510 kts 90°
2026-04-29 01:54 42.33761 97.33302 33207 ft 510 kts 91°
2026-04-29 01:54 42.33381 97.42897 33208 ft 510 kts 90°
2026-04-29 01:55 42.32993 97.52486 33209 ft 510 kts 91°
2026-04-29 01:55 42.32597 97.62071 33210 ft 511 kts 91°
2026-04-29 01:56 42.32194 97.71633 33205 ft 511 kts 91°
2026-04-29 01:56 42.31781 97.81235 33206 ft 510 kts 91°
2026-04-29 01:57 42.31363 97.90775 33208 ft 510 kts 91°
2026-04-29 01:57 42.30936 98.00341 33208 ft 509 kts 91°
2026-04-29 01:58 42.30506 98.09787 33208 ft 509 kts 91°
2026-04-29 01:58 42.30065 98.19308 33212 ft 508 kts 91°
2026-04-29 01:59 42.29617 98.28816 33212 ft 507 kts 91°
2026-04-29 01:59 42.29150 98.38288 33209 ft 507 kts 91°
2026-04-29 02:00 42.28661 98.47775 33205 ft 507 kts 91°
2026-04-29 02:00 42.28167 98.57232 33205 ft 507 kts 91°
2026-04-29 02:01 42.27667 98.66685 33203 ft 506 kts 92°
2026-04-29 02:01 42.27157 98.76155 33200 ft 505 kts 92°
2026-04-29 02:02 42.26642 98.85591 33201 ft 506 kts 92°
2026-04-29 02:02 42.26118 98.95041 33202 ft 505 kts 92°
2026-04-29 02:03 42.25587 99.04472 33199 ft 505 kts 92°
2026-04-29 02:03 42.25050 99.13873 33194 ft 504 kts 92°
2026-04-29 02:04 42.24506 99.23261 33189 ft 504 kts 92°
2026-04-29 02:04 42.23951 99.32716 33189 ft 504 kts 92°
2026-04-29 02:05 42.23385 99.42217 33195 ft 505 kts 92°
2026-04-29 02:05 42.22816 99.51630 33199 ft 504 kts 92°
2026-04-29 02:06 42.22239 99.61063 33198 ft 505 kts 92°
2026-04-29 02:06 42.21653 99.70489 33192 ft 504 kts 92°
2026-04-29 02:07 42.21063 99.79880 33190 ft 504 kts 92°
2026-04-29 02:07 42.20461 99.89327 33191 ft 504 kts 92°
2026-04-29 02:08 42.19855 99.98716 33190 ft 505 kts 92°
2026-04-29 02:08 42.19241 100.08097 33189 ft 504 kts 92°
2026-04-29 02:09 42.18615 100.17558 33194 ft 505 kts 92°
2026-04-29 02:09 42.17979 100.27041 33202 ft 504 kts 92°
2026-04-29 02:10 42.17336 100.36506 33199 ft 504 kts 92°
2026-04-29 02:10 42.16690 100.45918 33204 ft 506 kts 92°
2026-04-29 02:11 42.16035 100.55324 33208 ft 504 kts 92°
2026-04-29 02:11 42.15369 100.64785 33204 ft 503 kts 92°
2026-04-29 02:12 42.14700 100.74180 33207 ft 505 kts 92°
2026-04-29 02:12 42.14024 100.83566 33212 ft 505 kts 92°
2026-04-29 02:13 42.13336 100.92997 33216 ft 504 kts 92°
2026-04-29 02:13 42.12584 101.02318 33210 ft 504 kts 97°
2026-04-29 02:14 42.10591 101.11438 33221 ft 510 kts 105°
2026-04-29 02:14 42.08272 101.20409 33218 ft 509 kts 105°
2026-04-29 02:15 42.05906 101.29472 33221 ft 511 kts 106°
2026-04-29 02:15 42.03556 101.38417 33224 ft 510 kts 105°
2026-04-29 02:16 42.01160 101.47493 33224 ft 511 kts 105°
2026-04-29 02:16 41.98780 101.56465 33224 ft 510 kts 105°
2026-04-29 02:17 41.96388 101.65448 33222 ft 510 kts 106°
2026-04-29 02:17 41.94005 101.74360 33222 ft 508 kts 106°
2026-04-29 02:18 41.91602 101.83316 33226 ft 510 kts 106°
2026-04-29 02:18 41.89191 101.92266 33217 ft 509 kts 106°
2026-04-29 02:19 41.86774 102.01205 33216 ft 510 kts 106°
2026-04-29 02:19 41.84358 102.10111 33221 ft 511 kts 106°
2026-04-29 02:20 41.81916 102.19082 33218 ft 511 kts 106°
2026-04-29 02:20 41.79474 102.28014 33224 ft 510 kts 106°
2026-04-29 02:21 41.77034 102.36911 33226 ft 510 kts 106°
2026-04-29 02:21 41.74578 102.45832 33230 ft 510 kts 106°
2026-04-29 02:22 41.72102 102.54797 33236 ft 510 kts 106°
2026-04-29 02:22 41.69631 102.63709 33242 ft 510 kts 106°
2026-04-29 02:23 41.67127 102.72711 33238 ft 512 kts 107°
2026-04-29 02:23 41.64659 102.81554 33241 ft 512 kts 107°
2026-04-29 02:24 41.62165 102.90462 33244 ft 511 kts 107°
2026-04-29 02:25 41.58436 103.03717 33248 ft 509 kts 107°
2026-04-29 02:25 41.55915 103.12633 33249 ft 510 kts 107°
2026-04-29 02:26 41.53402 103.21494 33250 ft 511 kts 107°
2026-04-29 02:26 41.50885 103.30335 33244 ft 511 kts 107°
2026-04-29 02:27 41.48340 103.39243 33253 ft 511 kts 107°
2026-04-29 02:27 41.45814 103.48055 33253 ft 511 kts 107°
2026-04-29 02:28 41.43272 103.56892 33254 ft 509 kts 107°
2026-04-29 02:28 41.40742 103.65654 33255 ft 507 kts 108°
2026-04-29 02:29 41.38197 103.74444 33252 ft 509 kts 108°
2026-04-29 02:29 41.35643 103.83230 33249 ft 507 kts 107°
2026-04-29 02:30 41.33103 103.91941 33254 ft 507 kts 107°
2026-04-29 02:30 41.30548 104.00673 33252 ft 507 kts 108°
2026-04-29 02:31 41.27978 104.09430 33251 ft 508 kts 107°
2026-04-29 02:31 41.25404 104.18169 33250 ft 507 kts 107°
2026-04-29 02:32 41.22826 104.26891 33252 ft 508 kts 107°
2026-04-29 02:32 41.20229 104.35650 33256 ft 508 kts 107°
2026-04-29 02:33 41.17625 104.44401 33258 ft 508 kts 107°
2026-04-29 02:33 41.15008 104.53166 33264 ft 509 kts 107°
2026-04-29 02:34 41.12409 104.61844 33269 ft 508 kts 107°
2026-04-29 02:34 41.09771 104.70622 33273 ft 509 kts 108°
2026-04-29 02:35 41.06927 104.79192 33274 ft 511 kts 110°
2026-04-29 02:35 41.04013 104.87757 33280 ft 512 kts 110°
2026-04-29 02:36 41.01093 104.96343 33283 ft 512 kts 110°
2026-04-29 02:36 40.98183 105.04890 33288 ft 510 kts 110°
2026-04-29 02:37 40.95255 105.13475 33286 ft 509 kts 110°
2026-04-29 02:37 40.92332 105.22026 33291 ft 509 kts 110°
2026-04-29 02:38 40.89424 105.30508 33284 ft 505 kts 110°
2026-04-29 02:38 40.86520 105.38959 33277 ft 506 kts 110°
2026-04-29 02:39 40.83634 105.47331 33282 ft 502 kts 110°
2026-04-29 02:39 40.80709 105.55793 33285 ft 503 kts 110°
2026-04-29 02:40 40.77822 105.64118 33286 ft 502 kts 110°
2026-04-29 02:40 40.74905 105.72508 33289 ft 503 kts 111°
2026-04-29 02:41 40.72014 105.80797 33292 ft 501 kts 111°
2026-04-29 02:41 40.69111 105.89097 33291 ft 500 kts 111°
2026-04-29 02:42 40.66194 105.97411 33291 ft 500 kts 111°
2026-04-29 02:42 40.63281 106.05690 33308 ft 499 kts 111°
2026-04-29 02:43 40.60381 106.13908 33291 ft 496 kts 111°
2026-04-29 02:43 40.57457 106.22169 33288 ft 496 kts 111°
2026-04-29 02:44 40.54539 106.30393 33303 ft 493 kts 111°
2026-04-29 02:44 40.51634 106.38557 33308 ft 495 kts 111°
2026-04-29 02:45 40.48733 106.46682 33283 ft 489 kts 111°
2026-04-29 02:45 40.45822 106.54815 33298 ft 489 kts 112°
2026-04-29 02:46 40.42920 106.62901 33310 ft 491 kts 112°
2026-04-29 02:46 40.40046 106.70886 33305 ft 486 kts 113°
2026-04-29 02:47 40.37160 106.78881 33297 ft 486 kts 113°
2026-04-29 02:47 40.34261 106.86890 33297 ft 485 kts 113°
2026-04-29 02:48 40.31775 106.95013 33312 ft 481 kts 102°
2026-04-29 02:48 40.31098 107.03616 33300 ft 475 kts 85°
2026-04-29 02:49 40.31574 107.12241 33306 ft 475 kts 84°
2026-04-29 02:49 40.32052 107.20795 33301 ft 473 kts 84°
2026-04-29 02:50 40.32503 107.29352 33299 ft 472 kts 84°
2026-04-29 02:50 40.32939 107.37939 33306 ft 472 kts 84°
2026-04-29 02:51 40.33362 107.46476 33300 ft 471 kts 85°
2026-04-29 02:51 40.33779 107.55100 33306 ft 470 kts 85°
2026-04-29 02:52 40.34182 107.63585 33306 ft 469 kts 85°
2026-04-29 02:52 40.34580 107.72132 33314 ft 467 kts 85°
2026-04-29 02:53 40.34967 107.80570 33311 ft 467 kts 85°
2026-04-29 02:53 40.35349 107.89047 33309 ft 469 kts 85°
2026-04-29 02:54 40.35724 107.97512 33310 ft 465 kts 86°
2026-04-29 02:54 40.36083 108.06019 33313 ft 464 kts 86°
2026-04-29 02:55 40.36419 108.14452 33306 ft 465 kts 86°
2026-04-29 02:55 40.36753 108.22955 33316 ft 464 kts 86°
2026-04-29 02:56 40.37080 108.31403 33317 ft 464 kts 86°
2026-04-29 02:56 40.37398 108.39803 33321 ft 465 kts 86°
2026-04-29 02:57 40.37714 108.48280 33321 ft 464 kts 86°
2026-04-29 02:57 40.38019 108.56654 33324 ft 462 kts 86°
2026-04-29 02:58 40.38320 108.65070 33334 ft 462 kts 86°
2026-04-29 02:58 40.38614 108.73450 33330 ft 463 kts 86°
2026-04-29 02:59 40.38902 108.81846 33333 ft 462 kts 86°
2026-04-29 02:59 40.39186 108.90296 33344 ft 462 kts 86°
2026-04-29 03:00 40.39461 108.98659 33345 ft 461 kts 86°
2026-04-29 03:00 40.39731 109.07081 33337 ft 459 kts 86°
2026-04-29 03:01 40.39994 109.15435 33340 ft 458 kts 86°
2026-04-29 03:01 40.40250 109.23779 33339 ft 459 kts 86°
2026-04-29 03:02 40.40500 109.32137 33344 ft 460 kts 86°
2026-04-29 03:02 40.40744 109.40486 33339 ft 458 kts 86°
2026-04-29 03:03 40.40982 109.48813 33343 ft 459 kts 86°
2026-04-29 03:03 40.41214 109.57181 33351 ft 457 kts 86°
2026-04-29 03:04 40.41441 109.65540 33348 ft 458 kts 87°
2026-04-29 03:04 40.41660 109.73852 33354 ft 456 kts 87°
2026-04-29 03:05 40.41873 109.82161 33358 ft 456 kts 87°
2026-04-29 03:05 40.42079 109.90429 33354 ft 455 kts 87°
2026-04-29 03:06 40.42276 109.98714 33354 ft 454 kts 88°
2026-04-29 03:06 40.42245 110.07040 33350 ft 456 kts 89°
2026-04-29 03:07 40.42189 110.15333 33356 ft 455 kts 89°
2026-04-29 03:07 40.42133 110.23645 33348 ft 454 kts 89°
2026-04-29 03:08 40.42076 110.31921 33344 ft 456 kts 89°
2026-04-29 03:08 40.42015 110.40211 33345 ft 455 kts 89°
2026-04-29 03:09 40.41949 110.48502 33345 ft 456 kts 89°
2026-04-29 03:09 40.41877 110.56821 33342 ft 455 kts 89°
2026-04-29 03:10 40.41799 110.65142 33344 ft 456 kts 90°
2026-04-29 03:10 40.41717 110.73422 33347 ft 454 kts 89°
2026-04-29 03:11 40.41627 110.81739 33346 ft 455 kts 89°
2026-04-29 03:11 40.41533 110.90082 33346 ft 457 kts 89°
2026-04-29 03:12 40.41432 110.98363 33346 ft 457 kts 89°
2026-04-29 03:12 40.41325 111.06697 33349 ft 456 kts 89°
2026-04-29 03:13 40.41212 111.15008 33343 ft 455 kts 89°
2026-04-29 03:13 40.41094 111.23277 33347 ft 455 kts 89°
2026-04-29 03:14 40.40970 111.31521 33346 ft 456 kts 89°
2026-04-29 03:14 40.40839 111.39816 33347 ft 456 kts 89°
2026-04-29 03:15 40.40701 111.48106 33348 ft 456 kts 89°
2026-04-29 03:15 40.40557 111.56428 33345 ft 454 kts 89°
2026-04-29 03:16 40.40407 111.64744 33346 ft 456 kts 89°
2026-04-29 03:16 40.40251 111.73021 33351 ft 455 kts 90°
2026-04-29 03:17 40.40091 111.81262 33350 ft 455 kts 90°
2026-04-29 03:17 40.39920 111.89620 33354 ft 456 kts 90°
2026-04-29 03:18 40.39030 111.97800 33349 ft 458 kts 104°
2026-04-29 03:18 40.36377 112.05454 33346 ft 465 kts 120°
2026-04-29 03:19 40.32133 112.11833 33338 ft 471 kts 136°
2026-04-29 03:19 40.26559 112.16411 33344 ft 480 kts 153°
2026-04-29 03:20 40.20033 112.18666 33338 ft 489 kts 171°
2026-04-29 03:20 40.13157 112.18192 33343 ft 498 kts 189°
2026-04-29 03:21 40.06567 112.15126 33346 ft 502 kts 199°
2026-04-29 03:21 39.99858 112.12795 33337 ft 495 kts 185°
2026-04-29 03:22 39.93009 112.12211 33338 ft 493 kts 177°
2026-04-29 03:22 39.86207 112.12597 33333 ft 492 kts 172°
2026-04-29 03:23 39.79421 112.13560 33325 ft 489 kts 169°
2026-04-29 03:23 39.72646 112.14838 33322 ft 492 kts 168°
2026-04-29 03:24 39.65904 112.16275 33306 ft 491 kts 167°
2026-04-29 03:24 39.59164 112.17799 33318 ft 493 kts 167°
2026-04-29 03:25 39.52415 112.19372 33343 ft 494 kts 167°
2026-04-29 03:25 39.45690 112.20975 33318 ft 493 kts 167°
2026-04-29 03:26 39.38891 112.22636 33328 ft 495 kts 167°
2026-04-29 03:26 39.32144 112.24287 33354 ft 496 kts 167°
2026-04-29 03:27 39.25315 112.25958 33347 ft 496 kts 167°
2026-04-29 03:27 39.18558 112.27609 33331 ft 496 kts 167°
2026-04-29 03:28 39.11777 112.29265 33345 ft 497 kts 167°
2026-04-29 03:28 39.04930 112.30933 33354 ft 496 kts 168°
2026-04-29 03:29 38.98130 112.32587 33336 ft 496 kts 168°
2026-04-29 03:29 38.91295 112.34247 33332 ft 498 kts 168°
2026-04-29 03:30 38.84460 112.35903 33321 ft 502 kts 168°
2026-04-29 03:30 38.77541 112.37576 33328 ft 501 kts 168°
2026-04-29 03:31 38.67258 112.40057 33323 ft 505 kts 169°
2026-04-29 03:31 38.60332 112.41724 33325 ft 505 kts 169°
2026-04-29 03:32 38.53373 112.43395 33341 ft 506 kts 169°
2026-04-29 03:32 38.46483 112.45047 33335 ft 506 kts 170°
2026-04-29 03:33 38.39560 112.46691 33341 ft 504 kts 171°
2026-04-29 03:33 38.32636 112.48326 33344 ft 503 kts 171°
2026-04-29 03:34 38.25717 112.49956 33345 ft 504 kts 171°
2026-04-29 03:34 38.18872 112.51567 33341 ft 501 kts 171°
2026-04-29 03:35 38.11998 112.53182 33328 ft 499 kts 172°
2026-04-29 03:35 38.05228 112.54769 33344 ft 497 kts 172°
2026-04-29 03:36 37.98419 112.56362 33351 ft 497 kts 172°
2026-04-29 03:36 37.91586 112.57958 33348 ft 496 kts 173°
2026-04-29 03:37 37.84763 112.59556 33347 ft 497 kts 172°
2026-04-29 03:37 37.77969 112.61173 33327 ft 498 kts 172°
2026-04-29 03:38 37.71145 112.63000 33347 ft 500 kts 168°
2026-04-29 03:38 37.64433 112.65311 33343 ft 501 kts 169°
2026-04-29 03:39 37.57764 112.67585 33341 ft 498 kts 169°
2026-04-29 03:39 37.51044 112.69856 33335 ft 500 kts 169°
2026-04-29 03:40 37.44355 112.72103 33335 ft 498 kts 170°
2026-04-29 03:40 37.37627 112.74351 33333 ft 499 kts 170°
2026-04-29 03:41 37.30907 112.76588 33333 ft 499 kts 170°
2026-04-29 03:41 37.24171 112.78825 33326 ft 497 kts 170°
2026-04-29 03:42 37.17491 112.81039 33328 ft 497 kts 170°
2026-04-29 03:42 37.10813 112.83247 33325 ft 494 kts 171°
2026-04-29 03:43 37.04139 112.85449 33330 ft 496 kts 171°
2026-04-29 03:43 36.97462 112.87656 33329 ft 493 kts 171°
2026-04-29 03:44 36.90791 112.89855 33332 ft 497 kts 171°
2026-04-29 03:44 36.84127 112.92051 33335 ft 493 kts 171°
2026-04-29 03:45 36.77507 112.94226 33338 ft 493 kts 171°
2026-04-29 03:45 36.70848 112.96410 33329 ft 492 kts 171°
2026-04-29 03:46 36.64182 112.98593 33338 ft 492 kts 172°
2026-04-29 03:46 36.57578 113.00751 33343 ft 491 kts 172°
2026-04-29 03:47 36.51002 113.02897 33336 ft 490 kts 172°
2026-04-29 03:47 36.44378 113.05054 33339 ft 489 kts 172°
2026-04-29 03:48 36.37773 113.07202 33338 ft 489 kts 172°
2026-04-29 03:48 36.31163 113.09347 33336 ft 488 kts 172°
2026-04-29 03:49 36.24606 113.11482 33335 ft 487 kts 171°
2026-04-29 03:49 36.18130 113.14287 33331 ft 490 kts 167°
2026-04-29 03:50 36.11727 113.17175 33338 ft 490 kts 168°
2026-04-29 03:50 36.05330 113.20051 33337 ft 492 kts 167°
2026-04-29 03:51 35.98924 113.22925 33334 ft 490 kts 168°
2026-04-29 03:51 35.92499 113.25799 33333 ft 490 kts 168°
2026-04-29 03:52 35.86119 113.28651 33335 ft 484 kts 168°
2026-04-29 03:52 35.79718 113.31509 33328 ft 487 kts 168°
2026-04-29 03:53 35.73363 113.34351 33322 ft 486 kts 168°
2026-04-29 03:53 35.67022 113.37182 33316 ft 484 kts 168°
2026-04-29 03:54 35.60687 113.40004 33320 ft 484 kts 168°
2026-04-29 03:54 35.54374 113.42807 33317 ft 482 kts 168°
2026-04-29 03:55 35.48037 113.45611 33321 ft 485 kts 168°
2026-04-29 03:55 35.41740 113.48404 33328 ft 481 kts 168°
2026-04-29 03:56 35.35463 113.51202 33330 ft 478 kts 168°
2026-04-29 03:56 35.29155 113.54005 33334 ft 480 kts 168°
2026-04-29 03:57 35.22930 113.56770 33325 ft 478 kts 168°
2026-04-29 03:57 35.16680 113.59538 33323 ft 479 kts 168°
2026-04-29 03:58 35.10425 113.62307 33322 ft 475 kts 168°
2026-04-29 03:58 35.04198 113.65056 33326 ft 476 kts 169°
2026-04-29 03:59 34.97999 113.67791 33310 ft 473 kts 169°
2026-04-29 03:59 34.91775 113.70528 33316 ft 475 kts 169°
2026-04-29 04:00 34.85563 113.73259 33319 ft 471 kts 169°
2026-04-29 04:00 34.79337 113.75375 33325 ft 466 kts 174°
2026-04-29 04:01 34.73042 113.77399 33336 ft 467 kts 174°
2026-04-29 04:01 34.66759 113.79446 33332 ft 467 kts 173°
2026-04-29 04:02 34.60542 113.81484 33340 ft 463 kts 174°
2026-04-29 04:02 34.54300 113.83533 33342 ft 463 kts 174°
2026-04-29 04:03 34.48098 113.85538 33349 ft 460 kts 174°
2026-04-29 04:03 34.41922 113.87484 33338 ft 459 kts 174°
2026-04-29 04:04 34.35739 113.89432 33336 ft 460 kts 174°
2026-04-29 04:04 34.29559 113.91379 33324 ft 460 kts 174°
2026-04-29 04:05 34.23370 113.93329 33329 ft 458 kts 174°
2026-04-29 04:05 34.17136 113.95287 33311 ft 460 kts 174°
2026-04-29 04:06 34.11008 113.97213 33319 ft 459 kts 174°
2026-04-29 04:06 34.04818 113.99154 33319 ft 457 kts 175°
2026-04-29 04:07 33.98654 114.01083 33312 ft 458 kts 175°
2026-04-29 04:07 33.92495 114.03011 33318 ft 457 kts 174°
2026-04-29 04:08 33.86354 114.04927 33328 ft 456 kts 175°
2026-04-29 04:08 33.80172 114.06853 33327 ft 456 kts 174°
2026-04-29 04:09 33.74038 114.08762 33329 ft 457 kts 174°
2026-04-29 04:09 33.67905 114.10670 33335 ft 456 kts 174°
2026-04-29 04:10 33.61747 114.12581 33330 ft 454 kts 174°
2026-04-29 04:10 33.55627 114.14477 33327 ft 455 kts 174°
2026-04-29 04:11 33.49453 114.16388 33320 ft 455 kts 174°
2026-04-29 04:11 33.43396 114.18856 33319 ft 469 kts 162°
2026-04-29 04:12 33.40559 114.20850 33322 ft 483 kts 154°
2026-04-29 04:12 33.37887 114.23422 33318 ft 493 kts 146°
2026-04-29 04:12 33.35538 114.26493 33321 ft 508 kts 136°
2026-04-29 04:12 33.33576 114.30020 33318 ft 520 kts 127°
2026-04-29 04:13 33.30792 114.38103 33323 ft 533 kts 117°
2026-04-29 04:13 33.28287 114.46381 33321 ft 532 kts 117°
2026-04-29 04:14 33.25759 114.54703 33324 ft 532 kts 117°
2026-04-29 04:14 33.23208 114.63013 33327 ft 531 kts 117°
2026-04-29 04:15 33.20639 114.71299 33319 ft 531 kts 118°
2026-04-29 04:15 33.18073 114.79499 33324 ft 532 kts 118°
2026-04-29 04:16 33.15476 114.87757 33325 ft 530 kts 118°
2026-04-29 04:16 33.12876 114.95990 33328 ft 530 kts 118°
2026-04-29 04:17 33.10297 115.04134 33329 ft 529 kts 118°
2026-04-29 04:17 33.07683 115.12354 33328 ft 533 kts 118°
2026-04-29 04:18 33.05041 115.20651 33335 ft 532 kts 118°
2026-04-29 04:18 33.02425 115.28840 33337 ft 533 kts 118°
2026-04-29 04:19 32.99782 115.37089 33332 ft 535 kts 118°
2026-04-29 04:19 32.97129 115.45354 33342 ft 535 kts 118°
2026-04-29 04:20 32.94536 115.53615 33327 ft 536 kts 118°
2026-04-29 04:20 32.91917 115.61955 33326 ft 534 kts 118°
2026-04-29 04:21 32.89246 115.70200 33329 ft 528 kts 124°
2026-04-29 04:21 32.87523 115.73961 33254 ft 516 kts 132°
2026-04-29 04:21 32.85421 115.77381 32873 ft 500 kts 139°
2026-04-29 04:22 32.83241 115.80533 32476 ft 491 kts 139°
2026-04-29 04:22 32.81079 115.83619 32117 ft 483 kts 140°
2026-04-29 04:22 32.78965 115.86629 31776 ft 474 kts 140°
2026-04-29 04:22 32.76849 115.89635 31480 ft 465 kts 140°
2026-04-29 04:23 32.74793 115.92552 31189 ft 456 kts 140°
2026-04-29 04:23 32.72762 115.95422 30882 ft 459 kts 139°
2026-04-29 04:23 32.70696 115.98333 30575 ft 466 kts 139°
2026-04-29 04:23 32.68621 116.01261 30262 ft 464 kts 139°
2026-04-29 04:24 32.66541 116.04198 29945 ft 458 kts 139°
2026-04-29 04:24 32.64521 116.07050 29637 ft 452 kts 139°
2026-04-29 04:24 32.62517 116.09875 29337 ft 450 kts 139°
2026-04-29 04:24 32.60495 116.12718 29037 ft 449 kts 139°
2026-04-29 04:25 32.58474 116.15559 28741 ft 450 kts 139°
2026-04-29 04:25 32.56462 116.18385 28446 ft 449 kts 139°
2026-04-29 04:25 32.54489 116.21224 28149 ft 448 kts 137°
2026-04-29 04:25 32.52522 116.24098 27833 ft 444 kts 137°
2026-04-29 04:26 32.50597 116.26907 27550 ft 443 kts 137°
2026-04-29 04:26 32.48650 116.29743 27249 ft 442 kts 137°
2026-04-29 04:26 32.46731 116.32537 26961 ft 439 kts 137°
2026-04-29 04:26 32.44801 116.35341 26662 ft 437 kts 137°
2026-04-29 04:27 32.42895 116.38109 26369 ft 434 kts 137°
2026-04-29 04:27 32.40969 116.40902 26066 ft 432 kts 137°
2026-04-29 04:27 32.39089 116.43625 25786 ft 432 kts 137°
2026-04-29 04:27 32.37180 116.46388 25483 ft 431 kts 137°
2026-04-29 04:28 32.35292 116.49120 25186 ft 428 kts 137°
2026-04-29 04:28 32.33419 116.51828 24895 ft 425 kts 137°
2026-04-29 04:28 32.31550 116.54527 24602 ft 423 kts 137°
2026-04-29 04:28 32.29689 116.57210 24310 ft 423 kts 137°
2026-04-29 04:29 32.27832 116.59888 24024 ft 421 kts 137°
2026-04-29 04:29 32.25966 116.62577 23739 ft 420 kts 136°
2026-04-29 04:29 32.24129 116.65222 23448 ft 418 kts 137°
2026-04-29 04:29 32.22288 116.67872 23153 ft 415 kts 137°
2026-04-29 04:30 32.20464 116.70496 22856 ft 412 kts 137°
2026-04-29 04:30 32.18671 116.73072 22575 ft 411 kts 137°
2026-04-29 04:30 32.14985 116.78220 22013 ft 407 kts 138°
2026-04-29 04:31 32.13166 116.80746 21718 ft 403 kts 137°
2026-04-29 04:31 32.11369 116.83243 21439 ft 396 kts 137°
2026-04-29 04:31 32.09609 116.85688 21163 ft 389 kts 137°
2026-04-29 04:31 32.07866 116.88107 20883 ft 385 kts 137°
2026-04-29 04:32 32.06151 116.90484 20599 ft 384 kts 136°
2026-04-29 04:32 32.04422 116.92879 20315 ft 383 kts 136°
2026-04-29 04:32 32.02681 116.95290 20034 ft 382 kts 136°
2026-04-29 04:32 32.00969 116.97662 19747 ft 380 kts 135°
2026-04-29 04:33 31.99256 117.00034 19457 ft 377 kts 135°
2026-04-29 04:33 31.97574 117.02361 19174 ft 376 kts 135°
2026-04-29 04:33 31.95895 117.04694 18895 ft 376 kts 135°
2026-04-29 04:33 31.94193 117.07058 18616 ft 374 kts 134°
2026-04-29 04:34 31.92518 117.09385 18338 ft 370 kts 134°
2026-04-29 04:34 31.90880 117.11658 18050 ft 368 kts 134°
2026-04-29 04:34 31.89230 117.13946 17934 ft 365 kts 134°
2026-04-29 04:34 31.87584 117.16225 17924 ft 369 kts 134°
2026-04-29 04:35 31.85919 117.18530 17920 ft 367 kts 134°
2026-04-29 04:35 31.84255 117.20834 17918 ft 370 kts 134°
2026-04-29 04:35 31.82583 117.23145 17914 ft 370 kts 134°
2026-04-29 04:35 31.80918 117.25446 17912 ft 370 kts 134°
2026-04-29 04:36 31.79261 117.27735 17907 ft 370 kts 135°
2026-04-29 04:36 31.77581 117.30055 17899 ft 367 kts 134°
2026-04-29 04:36 31.76012 117.32415 17902 ft 372 kts 129°
2026-04-29 04:36 31.74560 117.34857 17898 ft 374 kts 129°
2026-04-29 04:37 31.73080 117.37339 17896 ft 374 kts 129°
2026-04-29 04:37 31.71580 117.39837 17896 ft 374 kts 129°
2026-04-29 04:37 31.70084 117.42314 17895 ft 373 kts 130°
2026-04-29 04:37 31.68575 117.44801 17893 ft 373 kts 130°
2026-04-29 04:38 31.67070 117.47277 17898 ft 375 kts 130°
2026-04-29 04:38 31.65547 117.49777 17899 ft 374 kts 130°
2026-04-29 04:38 31.64027 117.52281 17891 ft 375 kts 128°
2026-04-29 04:38 31.62756 117.54950 17899 ft 380 kts 117°
2026-04-29 04:39 31.61880 117.57893 17890 ft 384 kts 107°
2026-04-29 04:39 31.61435 117.60982 17632 ft 391 kts 96°
2026-04-29 04:39 31.61451 117.64164 17212 ft 391 kts 85°
2026-04-29 04:39 31.61760 117.67348 16760 ft 390 kts 84°
2026-04-29 04:40 31.62082 117.70458 16302 ft 389 kts 83°
2026-04-29 04:40 31.62406 117.73634 15852 ft 388 kts 84°
2026-04-29 04:40 31.62718 117.76737 15395 ft 387 kts 83°
2026-04-29 04:40 31.63031 117.79871 14913 ft 386 kts 83°
2026-04-29 04:41 31.63335 117.82951 14447 ft 384 kts 82°
2026-04-29 04:41 31.63642 117.86076 13961 ft 382 kts 82°
2026-04-29 04:41 31.63942 117.89139 13490 ft 380 kts 82°
2026-04-29 04:41 31.64240 117.92207 13011 ft 378 kts 82°
2026-04-29 04:42 31.64536 117.95257 12522 ft 376 kts 82°
2026-04-29 04:42 31.64831 117.98309 12037 ft 374 kts 82°
2026-04-29 04:42 31.65121 118.01316 11553 ft 371 kts 82°
2026-04-29 04:42 31.65410 118.04326 11039 ft 367 kts 82°
2026-04-29 04:43 31.65688 118.07231 10526 ft 354 kts 82°
2026-04-29 04:43 31.65956 118.10046 10046 ft 342 kts 81°
2026-04-29 04:43 31.66212 118.12736 9566 ft 331 kts 81°
2026-04-29 04:43 31.66464 118.15385 9071 ft 320 kts 81°
2026-04-29 04:44 31.66655 118.17935 8585 ft 312 kts 85°
2026-04-29 04:44 31.66690 118.20464 8094 ft 304 kts 86°
2026-04-29 04:44 31.66694 118.22906 7613 ft 299 kts 86°
2026-04-29 04:44 31.66700 118.25332 7121 ft 296 kts 86°
2026-04-29 04:45 31.66707 118.27693 6624 ft 292 kts 86°
2026-04-29 04:45 31.66715 118.30084 6113 ft 289 kts 86°
2026-04-29 04:45 31.66722 118.32426 5601 ft 286 kts 86°
2026-04-29 04:45 31.66730 118.34744 5093 ft 283 kts 86°
2026-04-29 04:46 31.66737 118.37018 4598 ft 281 kts 87°
2026-04-29 04:46 31.66743 118.39294 4135 ft 277 kts 87°
2026-04-29 04:46 31.66660 118.41518 3879 ft 267 kts 99°
2026-04-29 04:46 31.66085 118.43529 3863 ft 253 kts 108°
2026-04-29 04:47 31.65388 118.45392 3871 ft 251 kts 110°
2026-04-29 04:47 31.64665 118.47251 3852 ft 251 kts 110°
2026-04-29 04:47 31.63939 118.49104 3728 ft 244 kts 110°
2026-04-29 04:47 31.63244 118.50874 3572 ft 237 kts 110°
2026-04-29 04:48 31.62559 118.52621 3392 ft 231 kts 110°
2026-04-29 04:48 31.61904 118.54288 3210 ft 225 kts 110°
2026-04-29 04:48 31.61257 118.55936 3032 ft 220 kts 110°
2026-04-29 04:48 31.60627 118.57538 2978 ft 211 kts 110°
2026-04-29 04:49 31.60168 118.59134 2931 ft 202 kts 89°
2026-04-29 04:49 31.60357 118.60748 2847 ft 198 kts 72°
2026-04-29 04:49 31.60803 118.62230 2679 ft 190 kts 68°
2026-04-29 04:49 31.61275 118.63657 2486 ft 182 kts 68°
2026-04-29 04:50 31.61721 118.65009 2321 ft 174 kts 68°
2026-04-29 04:50 31.62150 118.66312 2213 ft 171 kts 69°
2026-04-29 04:50 31.62585 118.67637 2117 ft 173 kts 68°
2026-04-29 04:50 31.63011 118.68935 2018 ft 171 kts 69°
2026-04-29 04:51 31.63517 118.70179 1915 ft 165 kts 59°
2026-04-29 04:51 31.64094 118.71273 1805 ft 153 kts 60°
2026-04-29 04:51 31.64614 118.72327 1778 ft 149 kts 59°
2026-04-29 04:51 31.65176 118.73368 1776 ft 149 kts 58°
2026-04-29 04:52 31.65739 118.74400 1775 ft 149 kts 59°
2026-04-29 04:52 31.66284 118.75412 1781 ft 145 kts 59°
2026-04-29 04:52 31.66805 118.76377 1751 ft 140 kts 58°
2026-04-29 04:52 31.67331 118.77351 1554 ft 140 kts 59°
2026-04-29 04:53 31.67850 118.78325 1351 ft 143 kts 59°
2026-04-29 04:53 31.68385 118.79296 1122 ft 141 kts 57°
2026-04-29 04:53 31.68908 118.80284 945 ft 142 kts 59°
2026-04-29 04:53 31.69436 118.81272 743 ft 143 kts 57°
2026-04-29 04:54 31.69977 118.82269 498 ft 144 kts 58°
2026-04-29 04:54 31.70508 118.83253 348 ft 146 kts 58°
2026-04-29 04:54 31.71049 118.84264 160 ft 144 kts 58°
2026-04-29 04:54 31.71578 118.85253 79 ft 143 kts 57°
2026-04-29 04:55 31.72055 118.86124 63 ft 100 kts 59°
2026-04-29 04:55 31.72327 118.86636 63 ft 48 kts 58°
2026-04-29 04:55 31.72440 118.86844 63 ft 15 kts 57°
2026-04-29 04:55 31.72505 118.86938 63 ft 11 kts 46°
2026-04-29 04:56 31.72558 118.86990 63 ft 10 kts 35°
2026-04-29 04:56 31.72618 118.87034 63 ft 6 kts 32°
2026-04-29 04:56 31.72659 118.87064 63 ft 7 kts 32°
2026-04-29 04:56 31.72713 118.87074 63 ft 8 kts 343°
2026-04-29 04:57 31.72767 118.87038 63 ft 9 kts 328°
2026-04-29 04:57 31.72801 118.86987 63 ft 8 kts 270°
2026-04-29 04:57 31.72777 118.86920 63 ft 8 kts 237°
2026-04-29 04:57 31.72741 118.86852 63 ft 10 kts 238°
2026-04-29 04:58 31.72699 118.86774 63 ft 12 kts 238°
2026-04-29 04:58 31.72661 118.86702 63 ft 10 kts 238°
2026-04-29 04:58 31.72627 118.86633 63 ft 8 kts 256°
2026-04-29 04:58 31.72659 118.86571 63 ft 10 kts 328°
2026-04-29 04:59 31.72723 118.86524 63 ft 11 kts 328°
2026-04-29 04:59 31.72794 118.86472 63 ft 12 kts 328°
2026-04-29 04:59 31.72870 118.86415 63 ft 13 kts 327°
2026-04-29 04:59 31.72953 118.86356 63 ft 14 kts 328°
2026-04-29 05:00 31.73040 118.86292 63 ft 15 kts 328°
2026-04-29 05:00 31.73133 118.86224 63 ft 15 kts 327°
2026-04-29 05:00 31.73228 118.86153 63 ft 16 kts 328°
2026-04-29 05:00 31.73326 118.86083 63 ft 16 kts 328°
2026-04-29 05:01 31.73426 118.86008 63 ft 17 kts 328°
2026-04-29 05:01 31.73531 118.85932 63 ft 17 kts 328°
2026-04-29 05:01 31.73637 118.85855 63 ft 18 kts 328°
2026-04-29 05:01 31.73718 118.85796 63 ft 7 kts 328°
2026-04-29 05:02 31.73770 118.85782 63 ft 8 kts 22°
2026-04-29 05:02 31.73814 118.85838 63 ft 10 kts 58°
2026-04-29 05:02 31.73853 118.85911 63 ft 11 kts 58°
2026-04-29 05:02 31.73896 118.85991 63 ft 12 kts 58°
2026-04-29 05:03 31.73941 118.86076 63 ft 12 kts 58°
2026-04-29 05:03 31.73990 118.86168 63 ft 13 kts 57°
2026-04-29 05:03 31.74042 118.86264 63 ft 14 kts 58°
2026-04-29 05:03 31.74095 118.86365 63 ft 14 kts 58°
2026-04-29 05:04 31.74150 118.86467 63 ft 15 kts 58°
2026-04-29 05:04 31.74207 118.86573 63 ft 15 kts 58°
2026-04-29 05:04 31.74265 118.86681 63 ft 15 kts 58°
2026-04-29 05:04 31.74324 118.86791 63 ft 11 kts 58°
2026-04-29 05:05 31.74353 118.86864 63 ft 9 kts 89°
2026-04-29 05:05 31.74333 118.86920 63 ft 5 kts 133°
2026-04-29 05:05 31.74316 118.86966 63 ft 7 kts 96°
2026-04-29 05:05 31.74299 118.87015 63 ft 5 kts 132°
2026-04-29 05:06 31.74274 118.87038 63 ft 5 kts 142°
2026-04-29 05:06 31.74254 118.87054 63 ft 1 kts 148°
2026-04-29 05:06 31.74251 118.87056 63 ft 0 kts 148°